Regional Weather Roundup
Issued by NWS

Home | Current Version | Previous Version | Text Only | Print | Product List | Glossary On
Versions: 1 2 3 4 5 6 7 8 9 10 11 12 13 14 15 16 17 18 19 20 21 22 23 24 25 26 27 28 29 30 31 32 33 34 35 36 37 38 39 40 41 42 43 44 45 46 47 48 49 50
000
ASPQ40 PGUM 291312
RWRPQ
WEATHER ROUNDUP FOR THE MARIANAS AND MICRONESIA
NATIONAL WEATHER SERVICE TIYAN GU
1100 PM CHST TUE JUL 29 2014

GUZ001>004-291400-
MARIANA ISLANDS-

CITY           SKY/WX    TMP DP  RH WIND       PRES   REMARKS
GUAM AIRPORT   LGT RAIN  79  75  89 W23G36    29.81S
ANDERSEN AFB   HVY RAIN  77  75  94 NW26G36   29.78F
ROTA AIRPORT   NOT AVBL
TINIAN AP      NOT AVBL
SAIPAN AP      PTCLDY    81  79  94 NE9       29.80F

$$

PMZ161-291400-
REPUBLIC OF PALAU-

CITY           SKY/WX    TMP DP  RH WIND       PRES   REMARKS
KOROR AP       MOCLDY    82  79  89 S5        29.86R HX  93
KOROR WSO      CLOUDY    81  75  83 SW8       29.87S

$$

PMZ171>174-291400-
FEDERATED STATES OF MICRONESIA-

CITY           SKY/WX    TMP DP  RH WIND       PRES   REMARKS
YAP AIRPORT    MOCLDY    82  75  78 S8        29.87S
CHUUK AP       CLOUDY    77  77 100 VRB6      29.89F
POHNPEI AP     NOT AVBL
POHNPEI WSO    CLOUDY    79  77  94 E3        29.93F
KOSRAE AP      NOT AVBL

$$

PMZ181-291400-
REPUBLIC OF THE MARSHALL ISLANDS-

CITY           SKY/WX    TMP DP  RH WIND       PRES   REMARKS
KWAJALEIN AP   CLEAR     81  73  78 S9        29.89F
MAJURO AP      NOT AVBL
MAJURO WSO     LGT RAIN  79  77  94 VRB2      29.88F

$$




USA.gov is the U.S. government's official web portal to all federal, state and local government web resources and services.